This is the latest recevied weather packets stored in our database for station/object KE0PRS. If no packets are shown the sender has not sent any weather packets the latest 10 day(s).
| Time | Temp. | Humidity | Pressure | Rain* | Wind** | Luminosity | Snow |
|---|---|---|---|---|---|---|---|
| 1777734640 | 13.89° C | 40% | 1023.5 hPa | 0 mm | - | 435 W/m² | - |
| 1777734337 | 13.33° C | 42% | 1023.3 hPa | 0 mm | - | 420 W/m² | - |
| 1777734033 | 13.33° C | 42% | 1023.3 hPa | 0 mm | - | 402 W/m² | - |
| 1777733730 | 12.78° C | 41% | 1023.4 hPa | 0 mm | - | 385 W/m² | - |
| 1777733426 | 12.78° C | 41% | 1023.3 hPa | 0 mm | - | 370 W/m² | - |
| 1777733122 | 12.78° C | 41% | 1023.4 hPa | 0 mm | - | 355 W/m² | - |
| 1777732820 | 12.78° C | 41% | 1023.4 hPa | 0 mm | - | 336 W/m² | - |
| 1777732516 | 12.78° C | 41% | 1023.4 hPa | 0 mm | - | 324 W/m² | - |
| 1777732214 | 12.22° C | 45% | 1023.4 hPa | 0 mm | - | 309 W/m² | - |
| 1777731911 | 11.67° C | 47% | 1023.2 hPa | 0 mm | - | 292 W/m² | - |
| 1777731607 | 11.67° C | 45% | 1023.2 hPa | 0 mm | - | 279 W/m² | - |
| 1777731305 | 11.67° C | 45% | 1023.1 hPa | 0 mm | - | 269 W/m² | - |
| 1777731002 | 11.11° C | 45% | 1023.3 hPa | 0 mm | - | 256 W/m² | - |
| 1777730701 | 11.11° C | 46% | 1023.2 hPa | 0 mm | - | 242 W/m² | - |
| 1777730396 | 11.11° C | 47% | 1023.2 hPa | 0 mm | - | 233 W/m² | - |
| 1777730092 | 10.56° C | 51% | 1023.2 hPa | 0 mm | - | 217 W/m² | - |
| 1777729789 | 10.56° C | 54% | 1023.1 hPa | 0 mm | - | 205 W/m² | - |
| 1777729486 | 10° C | 54% | 1023.1 hPa | 0 mm | - | 194 W/m² | - |
| 1777729183 | 9.44° C | 59% | 1023.2 hPa | 0 mm | - | 181 W/m² | - |
| 1777728879 | 8.89° C | 62% | 1023 hPa | 0 mm | - | 168 W/m² | - |
| 1777728577 | 8.33° C | 65% | 1023.1 hPa | 0 mm | - | 110 W/m² | - |
| 1777728273 | 7.78° C | 68% | 1023.1 hPa | 0 mm | - | 56 W/m² | - |
| 1777727971 | 7.78° C | 70% | 1023 hPa | 0 mm | - | 82 W/m² | - |
| 1777727667 | 7.22° C | 71% | 1023 hPa | 0 mm | - | 82 W/m² | - |
| 1777727365 | 7.22° C | 74% | 1023 hPa | 0 mm | - | 86 W/m² | - |
* Rain latest hour (hover to see other rain measurements)
** Current wind speed in m/s (hover to see current wind gust speed)